Weather History for KHHR - November, 2013

Change the Weather History Date:

Thursday, November 7, 2013

  Actual Average Record
Temperature  
Mean Temperature 72 °F -  
Max Temperature 84 °F 69 °F 93 °F (2006)
Min Temperature 61 °F 55 °F 45 °F (1945)
Cooling Degree Days 8    
Growing Degree Days 22 (Base 50)    
Moisture  
Dew Point 29 °F    
Average Humidity 26    
Maximum Humidity 58    
Minimum Humidity 6    
Precipitation  
Precipitation 0.00 in - - ()
Sea Level Pressure  
Sea Level Pressure 30.05 in    
Wind  
Wind Speed 1 mph (WNW)    
Max Wind Speed 8 mph    
Max Gust Speed -    
Visibility 10 miles    
Events      
Averages and records for this station are not official NWS values.
T = Trace of Precipitation, MM = Missing Value Source: NWS Daily Summary

Daily Weather History Graph

Daily Weather History Graph

Search for Another Location

Airport or City:

Trip Planner

Search our weather history database for the weather conditions in past years. The results will help you decide how hot, cold, wet, or windy it might be!

Date:

Astronomy

Nov. 07, 2013 Rise Set
Actual Time 6:18 AM PST 4:55 PM PST
Civil Twilight 5:52 AM PST 5:21 PM PST
Nautical Twilight 5:22 AM PST 5:51 PM PST
Astronomical Twilight 4:53 AM PST 6:20 PM PST
Moon 10:28 AM PST (11/7) 9:13 PM PST (11/7)
Length of Visible Light 11h 28m
Length of Day
10h 36m
Waxing Crescent, 24% of the Moon is Illuminated
Nov 7
Waxing Crescent
Nov 9
First Quarter
Nov 17
Full
Nov 25
Last Quarter
Dec 2
New

Hourly Weather History & Observations

Time (PST) Temp. Dew Point Humidity Pressure Visibility Wind Dir Wind Speed Gust Speed Precip Events Conditions
12:53 AM 64.0 °F 17.1 °F 16% 30.10 in 10.0 mi Calm Calm - N/A   Clear
1:53 AM 61.0 °F 19.9 °F 21% 30.09 in 10.0 mi Calm Calm - N/A   Clear
2:53 AM 63.0 °F 17.1 °F 17% 30.09 in 10.0 mi Calm Calm - N/A   Clear
3:53 AM 64.0 °F 15.1 °F 15% 30.08 in 10.0 mi Calm Calm - N/A   Clear
4:53 AM 64.0 °F 16.0 °F 16% 30.08 in 10.0 mi Calm Calm - N/A   Clear
5:53 AM 63.0 °F 17.1 °F 17% 30.09 in 10.0 mi Calm Calm - N/A   Clear
6:53 AM 64.9 °F 17.1 °F 16% 30.09 in 10.0 mi Calm Calm - N/A   Clear
7:53 AM 70.0 °F 18.0 °F 14% 30.11 in 10.0 mi Calm Calm - N/A   Clear
8:53 AM 75.9 °F 17.1 °F 11% 30.12 in 10.0 mi North 4.6 mph - N/A   Clear
9:53 AM 80.1 °F 12.9 °F 8% 30.10 in 10.0 mi Variable 4.6 mph - N/A   Clear
10:53 AM 82.9 °F 14.0 °F 8% 30.09 in 10.0 mi East 4.6 mph - N/A   Clear
11:53 AM 84.0 °F 9.0 °F 6% 30.06 in 10.0 mi Calm Calm - N/A   Clear
12:53 PM 82.0 °F 36.0 °F 19% 30.03 in 10.0 mi WSW 8.1 mph - N/A   Clear
1:53 PM 80.1 °F 37.0 °F 21% 30.02 in 10.0 mi WNW 5.8 mph - N/A   Clear
2:53 PM 78.1 °F 27.0 °F 15% 30.01 in 10.0 mi West 8.1 mph - N/A   Clear
3:53 PM 75.0 °F 35.1 °F 23% 30.00 in 10.0 mi West 8.1 mph - N/A   Clear
4:53 PM 72.0 °F 45.0 °F 38% 30.00 in 10.0 mi WSW 3.5 mph - N/A   Clear
5:53 PM 70.0 °F 44.1 °F 39% 30.00 in 10.0 mi Calm Calm - N/A   Clear
6:53 PM 68.0 °F 46.9 °F 47% 30.00 in 10.0 mi Calm Calm - N/A   Clear
7:53 PM 66.0 °F 46.9 °F 50% 29.99 in 10.0 mi Calm Calm - N/A   Clear
8:53 PM 64.9 °F 46.9 °F 52% 29.99 in 10.0 mi Calm Calm - N/A   Clear
9:53 PM 63.0 °F 46.0 °F 54% 30.00 in 10.0 mi Calm Calm - N/A   Clear
10:53 PM 64.0 °F 46.9 °F 54% 30.00 in 10.0 mi Calm Calm - N/A   Clear
11:53 PM 61.0 °F 46.0 °F 58% 30.00 in 10.0 mi Calm Calm - N/A   Clear